This demonstration page uses our WeatherBlox Daily Observations layout. Learn more.

41.86663, -103.66717

Hourly Observations for August 14, 2020

Temp ( °F °C ) Dew Point ( °F °C ) Humidity (%) Winds ( mph kmh ) Pressure ( in mb ) Visibility ( mi km ) Precip ( " mm )
12:53 am 00:53 Clear 76 24.4 56 13.3 50 50 NW 9 15 29.77 1008 10 16.0934 0 0
1:53 am 01:53 Clear 71 21.7 55 12.8 57 57 NE 3 6 29.78 1008 10 16.0934 0 0
2:53 am 02:53 Clear 68 20 56 13.3 65 65 E 5 7 29.76 1008 10 16.0934 0 0
3:53 am 03:53 Clear 61 16.1 54 12.2 78 78 NNE 8 13 29.77 1008 10 16.0934 0 0
4:53 am 04:53 Clear 59 15 53 11.7 81 81 NW 6 9 29.8 1009 10 16.0934 0 0
5:53 am 05:53 Clear 58 14.4 43 6.1 58 58 NW 9 15 29.88 1012 10 16.0934 0 0
6:53 am 06:53 Sunny 62 16.7 49 9.4 62 62 WNW 9 15 29.94 1014 10 16.0934 0 0
7:53 am 07:53 Sunny 65 18.3 51 10.6 61 61 WNW 14 22 30 1016 10 16.0934 0 0
8:53 am 08:53 Sunny 70 21.1 50 10 49 49 NNW 10 17 30.02 1017 10 16.0934 0 0
9:53 am 09:53 Sunny 72 22.2 50 10 46 46 NNW 7 11 30.03 1017 10 16.0934 0 0
10:53 am 10:53 Sunny 74 23.3 51 10.6 45 45 WNW 9 15 30.02 1017 10 16.0934 0 0
11:53 am 11:53 Sunny 78 25.6 51 10.6 39 39 WNW 13 20 30 1016 10 16.0934 0 0
12:53 pm 12:53 Sunny 82 27.8 49 9.4 32 32 W 12 19 29.99 1016 10 16.0934 0 0
1:53 pm 13:53 Sunny 83 28.3 48 8.9 30 30 WNW 7 11 29.98 1015 10 16.0934 0 0
2:53 pm 14:53 Sunny 86 30 47 8.3 26 26 NW 8 13 29.95 1014 10 16.0934 0 0
3:53 pm 15:53 Sunny 89 31.7 45 7.2 22 22 NNE 9 15 29.94 1014 10 16.0934 0 0
4:53 pm 16:53 Sunny 88 31.1 45 7.2 22 22 NE 10 17 29.95 1014 10 16.0934 0 0
5:53 pm 17:53 Sunny 88 31.1 44 6.7 22 22 ENE 7 11 29.95 1014 10 16.0934 0 0
6:53 pm 18:53 Sunny 83 28.3 49 9.4 31 31 E 8 13 29.96 1015 10 16.0934 0 0
7:53 pm 19:53 Sunny 74 23.3 52 11.1 46 46 ENE 7 11 29.99 1016 10 16.0934 0 0
8:53 pm 20:53 Clear 72 22.2 49 9.4 44 44 ENE 8 13 30.01 1016 10 16.0934 0 0
9:53 pm 21:53 Clear 67 19.4 50 10 55 55 SSE 3 6 30.03 1017 10 16.0934 0 0
10:53 pm 22:53 Clear 65 18.3 50 10 59 59 E 5 7 30.04 1017 10 16.0934 0 0
11:53 pm 23:53 Clear 63 17.2 48 8.9 58 58 ESE 6 9 30.04 1017 10 16.0934 0 0

Powered by AerisWeather